Theta_e
311 310 310 310 309 309 309 309 308 307 307 305 303 305 303 305 300 311 314 316 310 300 290 293 293 294 298 302 303 303 301 299 301 299 300 299 300 297 297 297 295 296 295 295 293 294 290 293 290 294 293 296 298 300 303 303 299 295 292 294 295 303 285 283 285 288 292 295 298 299 300 299 295 296 298 295 288 291 288 285 286 284 285 284 283 281 283
311 310 310 310 309 309 309 309 308 307 307 303 302 302 303 303 304 308 314 315 309 299 289 290 290 297 300 301 300 304 301 299 297 298 300 297 297 295 297 299 300 296 297 294 292 295 284 293 293 290 295 294 301 300 300 304 299 298 294 291 296 284 284 285 280 281 286 288 290 290 295 296 291 290 292 297 296 296 294 293 292 284 285 286 283 279 281
310 310 310 309 309 309 309 308 308 307 307 307 302 302 302 302 305 307 308 311 306 298 296 290 288 295 295 296 296 297 298 300 300 299 298 301 297 296 295 298 299 296 297 295 295 296 293 288 294 295 295 294 301 299 299 301 300 305 306 307 299 287 285 284 281 279 277 277 278 280 285 287 290 293 293 296 295 292 288 284 285 283 288 288 282 281 287
310 310 310 309 309 308 308 308 308 307 307 307 304 303 303 300 289 295 299 304 300 299 301 299 295 293 292 288 296 297 295 299 302 301 300 302 300 297 299 298 298 295 294 292 293 293 297 293 291 292 291 294 297 298 298 299 301 305 306 307 298 288 288 285 284 282 281 284 285 290 291 289 286 289 291 291 294 296 291 288 285 283 285 284 286 286 288
310 310 310 309 308 308 308 308 307 307 307 307 304 306 305 303 294 291 289 301 294 295 298 299 296 293 294 287 296 293 296 298 298 301 295 301 299 298 297 297 293 292 291 290 291 294 293 294 292 292 292 294 295 298 297 298 303 306 306 304 293 285 282 285 287 285 288 290 289 292 292 288 290 289 289 291 291 291 288 284 284 287 285 283 288 290 287
310 310 309 309 308 308 308 308 307 307 307 307 306 304 307 291 297 301 303 291 288 285 290 299 298 300 296 293 298 295 293 294 290 297 300 301 299 292 294 295 295 294 293 291 286 290 290 291 287 292 294 292 294 294 296 296 302 305 300 302 291 283 282 286 288 286 289 291 292 292 290 290 291 291 291 290 291 290 286 286 290 291 285 284 289 291 289
310 310 310 309 308 308 308 308 307 307 306 307 306 300 301 301 301 302 305 293 295 293 299 302 299 297 296 291 296 293 293 293 296 296 295 296 295 295 284 291 293 294 294 292 289 290 285 282 290 289 289 290 290 289 292 295 297 297 297 297 293 286 280 284 289 288 288 289 290 291 289 289 290 290 290 291 290 290 290 289 290 290 289 291 291 291 291
310 310 309 309 309 308 308 308 308 307 306 309 307 305 300 299 297 295 300 301 298 298 299 299 297 294 300 289 296 296 294 293 294 297 294 287 293 297 292 293 294 294 293 292 289 292 292 290 286 291 290 290 290 289 290 290 293 294 292 296 296 290 284 292 289 285 285 288 290 289 290 289 287 289 289 292 292 291 292 291 290 291 290 291 292 290 290
310 310 309 309 309 308 308 308 308 307 307 309 307 305 306 305 307 305 300 294 295 295 298 298 295 289 292 290 296 296 295 294 297 295 299 295 294 295 292 294 293 294 293 292 292 294 294 293 293 293 292 288 293 290 289 294 290 293 293 295 296 293 286 289 285 283 284 287 287 288 288 288 286 287 290 290 289 288 291 286 290 289 288 289 288 287 288
310 310 309 309 309 308 308 308 308 307 307 306 302 301 307 305 306 308 301 293 300 297 295 295 291 289 295 296 296 294 296 297 295 287 298 299 298 297 296 295 292 291 290 291 293 296 295 296 296 296 296 297 296 296 296 296 293 291 293 296 292 291 288 283 282 282 282 287 287 287 286 281 280 284 288 290 291 293 294 294 296 294 294 287 285 288 295
310 310 310 309 308 308 307 307 308 308 305 302 304 304 307 304 301 302 296 290 291 296 294 294 293 297 297 298 296 299 297 297 297 289 288 298 298 300 298 295 291 289 291 295 300 299 299 299 299 299 298 297 296 297 296 296 296 294 291 291 290 291 288 281 285 280 280 285 286 284 276 273 277 289 294 294 291 291 290 290 292 295 296 293 296 296 299
311 310 309 309 308 308 307 307 308 308 306 302 304 305 308 307 303 302 291 288 291 295 294 294 294 298 298 299 298 297 296 296 297 298 293 295 296 299 298 295 292 286 297 301 299 300 300 300 299 297 297 296 296 296 295 294 296 298 298 293 288 287 286 281 284 280 280 282 282 277 272 276 289 292 294 296 297 296 294 294 295 296 297 297 295 295 296
311 310 309 309 308 307 307 306 307 308 308 304 301 301 304 308 304 302 298 293 290 295 291 296 299 298 299 298 297 297 299 299 299 298 297 295 297 298 299 296 293 296 301 300 300 298 293 290 291 291 292 293 293 296 297 296 295 298 298 296 288 279 281 280 281 280 279 279 280 275 276 285 292 293 294 297 296 294 291 290 295 296 296 297 293 295 296
311 310 309 308 307 307 307 306 306 308 308 306 300 299 302 305 302 299 295 285 289 293 297 296 297 297 296 297 295 297 297 296 296 298 296 299 297 296 299 300 300 300 300 300 295 293 287 285 283 284 287 287 286 285 293 295 297 296 295 295 293 288 283 281 281 282 279 278 279 278 284 286 285 285 290 290 287 290 288 283 287 295 296 295 294 295 296
310 309 308 307 307 307 307 306 307 308 308 307 301 301 302 306 304 300 302 295 291 290 294 288 294 296 297 297 296 291 290 292 292 291 298 302 299 301 301 302 301 300 299 295 291 289 286 283 279 280 280 281 277 280 289 287 294 297 295 294 292 290 287 286 282 280 281 281 278 278 274 272 280 290 293 295 294 296 296 291 288 295 294 296 296 295 296
310 308 307 307 307 307 306 306 307 308 308 307 301 299 302 306 306 304 301 295 286 287 294 301 302 299 296 296 298 294 292 286 290 288 288 292 298 299 300 300 301 301 300 296 292 286 282 282 281 278 278 280 286 284 280 287 285 291 295 295 293 292 290 285 281 281 278 278 278 278 276 279 287 289 292 294 294 295 296 289 283 290 292 294 295 295 296
309 308 307 307 306 307 307 307 307 307 308 307 300 299 301 306 305 304 299 298 293 287 297 304 302 297 292 293 294 294 293 289 289 287 285 287 295 299 300 300 299 301 298 290 289 284 282 280 282 282 281 287 283 281 284 283 281 283 288 288 288 286 282 279 280 276 278 279 279 275 275 279 286 290 292 294 295 295 289 276 275 286 292 294 294 294 295
308 307 307 306 306 307 307 307 307 308 308 308 301 298 299 304 306 305 301 299 291 290 297 303 299 293 292 293 293 298 297 295 294 291 287 291 295 296 298 297 295 299 299 289 287 281 280 280 281 280 280 287 289 284 276 284 280 279 281 283 281 280 279 280 281 279 278 279 273 274 276 285 288 291 293 294 295 288 276 274 282 290 293 295 294 295 296
307 307 307 307 306 307 307 307 309 309 308 308 303 301 302 304 308 304 302 298 296 291 301 306 305 299 301 302 299 300 299 297 292 287 284 284 293 299 299 300 299 289 295 287 284 283 283 281 285 285 282 282 287 281 286 281 280 285 285 281 279 278 281 279 277 278 277 275 277 276 277 286 290 293 294 294 288 278 277 285 290 292 294 296 295 295 297
307 306 307 306 306 307 308 308 307 308 308 308 303 298 303 306 308 306 301 296 297 294 299 303 304 301 303 298 296 294 296 293 292 287 286 285 292 294 288 288 290 291 287 285 280 286 283 282 284 286 280 282 284 289 282 282 286 284 284 286 280 281 280 279 279 280 278 275 274 273 273 283 294 294 290 291 284 283 288 292 294 295 295 295 296 295 296
306 306 306 306 306 307 308 308 307 307 308 308 306 299 301 306 310 310 305 301 293 291 295 303 305 303 304 302 302 304 299 295 294 291 293 289 295 288 284 282 286 289 287 284 283 284 285 282 284 285 287 287 285 286 281 280 283 288 289 285 283 287 280 278 279 282 278 276 275 277 282 287 293 293 286 290 292 293 296 293 293 295 294 295 295 296 297
306 305 306 305 305 306 307 307 307 307 307 307 307 301 299 305 310 311 310 304 295 289 292 303 307 305 306 307 304 304 304 303 303 298 294 290 294 290 287 292 293 292 294 291 286 287 288 288 286 282 281 283 284 282 285 279 276 283 287 286 280 285 284 284 282 284 283 280 279 286 288 292 294 295 294 294 297 298 298 297 296 295 295 295 295 297 298
305 305 305 305 305 306 306 306 306 306 307 307 305 300 300 304 307 310 307 300 300 301 305 305 306 306 308 308 308 306 306 308 306 302 297 291 288 293 294 291 293 298 297 294 287 287 288 286 283 285 283 284 285 281 282 283 280 282 282 288 287 291 291 288 288 285 288 290 292 294 293 293 294 295 297 296 298 299 299 298 295 296 298 297 296 297 298
305 305 304 305 305 305 305 305 305 306 306 306 305 302 302 304 306 306 303 300 298 290 291 297 300 291 299 302 305 306 308 307 306 305 304 301 289 289 296 298 299 297 296 297 295 292 290 287 287 288 282 283 288 281 281 278 277 283 285 283 286 293 293 289 285 286 285 280 286 291 291 292 293 294 296 296 298 298 297 295 295 296 297 297 297 297 297
306 305 304 304 304 304 304 305 305 305 306 306 305 305 305 304 306 306 300 291 289 288 290 287 290 302 307 309 306 304 304 308 309 308 306 302 297 293 293 299 301 295 295 298 296 292 286 287 288 285 282 286 290 282 285 282 283 287 283 283 284 285 294 287 286 286 283 283 289 291 292 293 294 293 293 294 295 296 296 296 297 297 298 297 298 298 297
306 305 304 304 304 304 304 304 305 305 306 306 306 301 302 303 307 307 304 301 299 295 287 288 295 307 306 306 304 306 308 310 309 308 307 306 304 304 302 303 302 302 298 297 295 288 285 286 285 283 283 284 291 283 282 287 288 288 285 285 290 290 293 282 287 285 286 289 289 290 292 292 292 293 294 295 295 295 296 296 296 297 296 297 298 297 298
306 305 304 304 303 304 303 304 305 305 305 306 304 301 302 304 306 305 302 301 294 289 289 287 295 303 306 303 307 308 309 309 308 307 307 307 307 305 303 300 299 298 298 296 292 285 285 284 284 285 287 285 289 289 289 287 287 284 282 287 292 291 287 288 285 280 279 282 287 289 286 284 291 294 295 295 295 295 295 295 295 296 296 297 297 298 298
305 305 304 304 304 304 303 304 304 304 305 305 304 302 303 302 304 306 307 305 298 287 286 287 292 299 304 301 306 306 307 308 307 306 305 305 305 304 303 301 299 297 295 293 290 289 286 286 286 285 287 288 288 286 289 287 288 285 285 286 291 290 289 287 282 281 284 288 291 291 292 292 293 295 297 296 295 296 296 296 296 296 297 297 297 297 297
305 304 305 304 304 304 304 304 304 304 305 305 301 302 301 303 306 307 308 309 305 301 294 291 296 294 291 297 305 304 306 307 306 305 305 305 305 303 303 302 300 298 297 289 285 285 283 284 284 286 288 292 289 285 286 282 281 282 285 290 292 295 295 292 291 290 291 293 294 294 292 292 295 296 296 296 296 296 297 297 298 297 298 298 297 296 296
305 304 304 304 304 304 304 304 304 304 305 300 300 296 289 292 301 305 306 308 305 301 291 287 287 289 299 301 301 304 303 305 305 305 303 302 301 301 302 300 298 300 296 290 288 289 285 285 285 290 295 296 291 285 285 281 282 285 289 291 293 294 296 297 295 293 292 295 295 295 295 296 297 297 297 296 297 299 297 298 298 298 299 298 297 297 296
305 305 305 304 304 304 303 304 304 306 304 297 297 288 287 286 295 306 306 307 306 300 288 288 287 289 290 298 300 300 303 302 301 301 302 302 300 299 300 301 297 298 290 290 290 287 286 287 286 289 294 295 291 286 283 282 281 282 288 291 293 294 294 296 297 298 298 298 298 297 295 296 296 294 294 294 296 296 295 297 299 302 302 299 296 296 296
305 305 304 304 304 303 304 304 304 305 299 298 299 297 297 300 303 306 306 306 304 297 288 286 284 285 285 288 298 302 303 303 303 301 299 301 299 300 300 300 295 297 292 287 285 288 287 284 287 289 290 293 293 286 285 284 283 287 292 291 293 294 295 295 295 296 298 299 297 292 290 291 292 295 293 295 295 296 296 296 297 296 299 298 296 296 296
304 304 304 304 304 304 304 304 305 304 298 303 307 307 307 307 307 307 306 303 298 294 292 285 283 285 284 288 297 302 303 299 297 296 294 297 296 298 295 299 298 298 303 292 288 286 286 286 286 287 291 293 288 284 286 286 288 293 294 294 295 295 295 297 297 297 297 297 295 292 290 291 293 294 295 295 295 296 296 296 296 296 296 296 296 296 296
304 304 304 304 304 305 305 305 306 305 305 301 297 298 303 307 306 307 303 304 297 294 289 286 284 284 285 291 291 293 302 292 292 294 288 295 300 297 290 296 296 290 292 290 286 289 289 289 287 285 291 289 289 286 284 288 292 293 294 294 295 296 296 296 296 296 295 295 294 295 295 295 295 294 294 294 295 295 297 296 296 296 295 295 295 295 295
303 303 304 304 305 305 306 305 299 298 296 298 299 301 303 307 307 307 306 300 292 287 286 287 285 284 282 282 284 287 300 296 293 293 288 290 299 296 295 291 289 289 288 297 288 285 285 289 290 287 285 287 287 285 286 290 292 293 293 294 295 295 295 293 294 294 294 294 295 296 296 295 294 293 293 294 294 295 295 295 296 296 295 295 295 295 295
303 304 304 305 306 305 302 301 299 297 295 295 299 306 307 306 307 304 306 306 299 291 287 284 284 281 282 281 281 287 300 294 294 293 294 291 296 298 291 287 286 289 295 293 285 287 286 291 290 284 285 284 284 287 290 292 292 293 293 294 295 295 294 294 294 293 294 295 296 296 295 294 294 293 294 294 295 294 294 294 295 294 294 294 295 295 295
304 304 305 305 304 301 294 290 296 299 300 307 307 307 308 308 307 305 303 301 304 305 295 289 287 286 285 283 283 286 295 286 291 291 291 289 285 286 289 285 285 285 287 287 285 284 289 294 287 282 282 282 284 289 293 294 293 293 293 293 295 296 296 294 294 294 294 294 294 293 294 293 292 293 293 293 294 293 293 293 293 293 293 294 294 295 296
304 305 303 300 298 289 288 288 296 302 308 307 308 301 298 297 288 288 291 292 292 299 291 294 287 289 291 290 286 293 294 286 290 286 284 285 286 286 285 285 283 285 282 282 285 291 286 286 284 283 283 286 290 292 293 294 295 295 295 295 295 296 296 294 295 293 292 292 290 291 291 292 291 291 291 291 292 292 293 293 294 294 294 295 296 297 296
303 302 300 299 292 286 286 292 303 308 307 307 304 291 288 289 286 286 285 287 287 288 286 290 286 289 289 288 289 295 292 286 286 286 285 288 286 282 284 284 285 285 282 283 284 292 283 281 282 283 282 284 286 289 292 295 295 296 295 295 295 296 296 296 296 294 293 291 292 293 293 291 291 291 292 291 292 292 292 292 293 293 294 294 294 294 294
300 296 292 292 288 289 300 305 309 306 302 293 292 287 285 287 284 281 285 284 284 284 288 285 288 290 292 290 289 288 293 291 285 283 283 284 289 284 284 283 284 283 279 280 283 288 283 279 280 282 282 282 284 288 291 294 295 296 296 296 296 296 295 296 296 296 295 295 295 295 294 293 292 292 291 291 291 290 291 291 292 293 293 294 294 292 292
299 298 296 288 293 299 301 303 304 302 292 288 286 285 283 283 284 284 284 282 282 282 288 287 289 290 291 291 290 288 292 295 291 290 286 284 289 287 282 282 284 282 280 280 284 285 283 281 281 280 281 283 286 290 292 294 295 296 297 297 297 296 296 297 298 297 296 295 295 294 294 294 294 293 293 292 291 290 291 291 292 292 292 292 292 293 294
299 299 300 302 303 302 299 298 292 289 287 287 282 280 283 282 284 286 284 281 281 282 288 289 286 287 288 293 291 292 289 295 290 284 285 285 287 285 281 282 283 280 278 282 286 285 283 280 279 280 283 286 288 291 294 294 295 295 296 297 296 296 296 297 297 297 296 296 295 295 294 293 293 293 293 292 291 291 291 291 292 291 292 292 293 293 294
304 305 306 301 296 294 289 287 290 286 281 283 280 278 281 280 281 280 281 283 287 288 287 294 291 292 294 297 292 293 290 293 289 285 284 283 286 286 282 282 281 279 280 284 284 281 281 279 279 283 286 287 289 291 293 294 295 295 296 296 295 296 296 296 296 297 296 296 295 295 294 293 293 293 293 292 292 291 291 291 292 292 292 292 293 293 294
302 303 298 292 290 292 288 282 287 284 282 282 279 276 278 278 281 282 281 282 283 285 288 290 288 290 286 289 290 287 287 290 287 285 285 285 285 283 282 281 281 284 287 283 282 280 282 283 285 286 288 289 293 293 293 294 296 295 295 296 296 296 295 295 294 294 294 293 293 293 293 292 291 292 293 292 292 291 292 292 292 292 292 291 292 293 294
293 291 291 288 285 288 285 280 287 281 278 280 282 280 280 278 279 279 282 284 288 285 288 290 289 290 287 289 289 288 286 285 286 285 283 284 281 283 281 280 282 284 282 279 281 282 283 283 287 288 289 290 291 293 294 295 295 295 295 295 294 295 295 294 294 293 292 292 292 292 291 291 291 291 291 291 292 292 291 292 293 292 292 292 292 293 293
291 289 288 284 282 286 283 279 282 279 282 283 281 280 280 282 281 283 288 289 289 289 289 290 291 291 288 288 287 286 285 284 285 284 284 284 280 279 283 285 284 281 280 281 279 279 281 284 285 288 290 291 292 293 294 295 296 295 294 292 293 294 293 292 292 292 291 291 291 291 291 290 290 290 290 291 291 292 292 292 293 293 293 292 292 292 293
291 291 288 286 281 283 284 279 280 281 282 282 284 285 287 288 289 288 288 290 289 290 291 290 292 292 289 287 287 286 285 285 283 284 283 281 281 283 285 282 279 279 277 277 279 280 282 284 288 290 290 292 293 293 294 294 294 293 293 292 291 291 292 291 292 291 291 291 290 290 289 289 289 290 290 290 290 291 292 292 293 293 293 292 292 292 293
286 288 287 281 279 281 282 282 284 284 285 287 286 288 289 289 289 288 291 290 291 291 291 289 289 290 289 289 290 286 286 286 284 286 285 283 284 282 281 279 279 281 282 280 281 283 283 287 289 290 291 292 292 292 292 292 292 292 291 291 291 291 291 290 290 290 290 290 290 289 290 289 290 290 290 290 290 291 292 292 293 292 292 293 293 292 293
290 286 283 281 281 282 281 282 285 284 286 286 286 286 286 287 287 289 291 292 289 289 290 289 286 286 286 287 286 286 286 286 283 284 286 284 280 278 279 277 278 277 282 284 283 284 287 289 291 292 292 292 292 294 292 291 292 291 292 292 291 291 290 290 290 290 290 290 290 290 290 290 290 290 290 290 290 291 291 292 291 292 292 293 292 292 292
290 288 288 284 282 282 282 284 284 282 282 285 284 285 286 286 286 289 290 291 290 289 287 287 287 286 286 286 284 285 285 286 285 286 284 282 280 280 280 277 280 281 282 285 286 287 290 291 291 291 292 292 292 292 291 292 290 291 292 292 291 291 291 290 290 290 290 290 290 290 290 290 290 291 291 291 291 291 291 292 292 292 293 294 293 293 293
292 289 287 287 283 280 282 281 280 277 281 282 283 285 285 285 286 287 290 292 290 286 285 285 285 284 284 284 284 282 284 287 285 284 283 281 283 281 279 280 281 282 284 288 290 291 291 291 292 291 291 292 293 293 293 292 292 291 291 291 291 291 291 291 291 290 290 290 290 289 290 291 292 292 292 291 292 291 292 292 293 294 295 295 295 295 295
288 286 285 285 289 288 286 284 284 283 283 284 284 286 287 287 289 292 292 290 288 286 284 284 283 282 282 282 284 286 286 285 283 283 282 283 284 281 282 284 285 286 287 288 289 291 291 293 292 291 292 292 292 292 291 292 291 291 291 291 291 291 290 290 290 290 290 290 290 291 292 292 292 291 291 291 291 291 291 291 292 294 294 295 296 296 295
Wind_Speed
13 15 16 17 18 18 18 19 20 20 21 7 7 3 3 4 1 5 6 6 6 8 5 3 4 2 1 1 2 1 2 2 1 3 3 2 2 3 3 3 3 4 3 4 4 6 2 2 3 3 6 6 12 10 13 10 6 3 2 2 1 1 2 3 4 6 7 7 5 3 4 6 4 2 2 3 1 3 4 2 2 2 1 1 1 4 4
12 14 16 17 17 17 17 18 19 18 16 4 5 2 2 1 2 5 3 4 7 10 2 2 1 0 2 3 1 4 2 2 2 1 1 1 2 2 1 3 3 2 3 4 3 4 2 4 7 4 6 2 6 13 11 10 3 3 1 1 3 2 1 1 4 5 6 2 2 4 2 3 2 5 4 1 1 0 1 2 1 1 3 3 4 7 1
12 14 15 17 17 18 17 18 18 17 14 7 0 2 1 1 2 2 6 8 8 4 2 5 3 3 2 3 5 3 2 2 1 1 2 1 1 1 2 2 2 3 2 4 3 4 4 3 2 4 3 4 2 9 9 9 3 2 3 1 1 2 1 2 3 6 8 10 8 9 11 8 5 3 2 1 2 3 1 1 1 3 1 3 2 4 5
12 13 15 16 17 18 18 18 18 17 15 9 1 1 1 3 1 5 5 6 6 4 1 4 4 3 1 3 1 1 1 3 2 7 4 2 2 2 1 4 6 4 4 4 4 4 3 3 3 4 5 5 3 5 7 5 2 3 2 2 3 1 0 2 2 3 3 5 5 7 2 5 5 8 5 7 3 5 3 2 2 5 1 4 5 6 9
11 12 14 16 17 19 19 18 19 19 17 7 4 1 2 1 2 1 3 5 6 1 4 2 3 1 3 2 0 4 2 1 3 4 1 2 1 2 4 1 4 3 4 1 1 3 6 4 3 4 5 4 5 8 7 7 4 1 1 3 3 2 1 2 3 4 7 8 7 10 3 7 9 9 8 5 0 4 4 4 5 1 2 7 3 1 3
10 11 13 15 17 19 19 20 20 21 20 5 2 2 0 3 1 2 1 3 1 3 3 4 4 2 4 1 0 1 2 4 1 3 2 3 4 2 3 7 3 3 3 1 2 4 3 3 4 5 1 7 8 11 4 4 2 2 1 3 2 2 0 3 2 3 6 6 7 9 4 5 6 7 7 9 5 3 4 4 4 3 2 7 5 8 8
9 11 12 14 16 18 20 20 21 23 22 3 1 2 3 2 1 0 1 1 1 2 1 2 5 4 2 1 3 2 2 1 0 0 2 2 3 3 2 3 3 4 4 4 1 2 4 3 1 2 5 3 6 6 7 4 3 2 1 2 1 2 1 4 3 4 3 5 6 6 4 3 4 5 8 6 9 6 2 4 3 4 7 6 8 9 10
8 10 12 13 15 18 19 20 21 23 23 4 4 4 1 2 1 3 5 2 1 1 1 1 4 3 3 2 1 1 0 2 4 2 2 1 3 3 5 1 2 4 4 3 1 1 1 2 4 3 4 9 1 3 5 5 5 2 1 1 4 4 4 4 3 3 5 5 6 4 4 2 3 5 9 8 5 3 4 3 4 4 1 4 6 6 4
7 8 11 13 14 16 18 18 20 23 18 5 4 2 2 2 1 0 1 2 2 2 1 0 3 3 5 4 1 3 1 1 1 4 1 5 1 1 2 1 1 1 3 4 3 3 2 4 6 6 3 8 2 0 5 2 4 3 3 3 2 1 3 2 2 5 7 2 3 8 7 3 3 7 9 9 9 7 6 3 5 2 5 5 4 3 3
7 7 10 12 14 15 16 17 18 20 16 4 2 2 3 1 2 1 2 1 1 1 1 1 5 2 1 1 1 1 2 2 2 2 1 3 4 4 3 2 3 1 4 4 3 5 4 6 7 7 8 8 9 8 12 8 6 1 2 1 1 0 0 2 2 3 5 6 5 10 8 3 4 7 6 4 3 2 0 2 1 2 2 2 4 5 5
7 7 8 10 12 14 14 15 15 17 10 6 4 2 3 5 4 4 4 2 5 3 1 2 6 2 2 2 2 3 3 4 2 1 1 1 2 2 3 2 2 1 0 1 4 4 5 6 8 6 8 9 9 10 9 9 6 5 5 2 1 1 1 1 1 1 4 8 9 6 4 6 1 2 5 4 3 3 2 1 5 7 3 2 1 1 4
6 6 7 9 11 13 13 13 13 13 9 3 1 2 3 1 1 1 2 4 1 3 4 1 1 1 3 0 3 2 3 2 1 3 1 1 2 1 3 2 2 2 2 4 2 4 6 3 3 4 6 7 9 9 6 3 5 5 6 4 1 0 1 1 3 1 4 4 8 6 5 1 2 6 6 6 4 4 3 4 5 4 3 2 4 4 4
5 5 6 8 10 11 12 12 12 11 9 4 1 1 3 0 1 0 1 3 1 2 3 1 1 4 3 4 3 1 1 1 1 3 2 2 0 1 3 2 2 2 2 2 5 5 4 5 6 3 5 9 5 9 13 10 5 5 1 4 6 1 1 1 0 2 1 4 5 4 2 1 2 6 7 7 2 3 2 1 2 3 4 3 4 5 5
5 5 6 8 10 11 11 11 11 9 10 6 3 2 3 2 2 3 1 3 1 2 1 2 2 2 3 3 2 0 1 4 4 1 0 1 3 3 3 1 2 2 2 2 4 3 5 6 5 9 9 8 6 5 5 7 3 4 3 1 2 6 3 2 1 1 1 1 0 3 1 1 2 4 3 2 3 3 2 2 3 1 3 3 4 7 6
5 4 6 8 9 10 10 10 9 9 10 9 2 3 3 3 0 2 0 2 2 1 1 3 1 2 4 1 1 2 4 1 4 1 3 0 1 2 2 1 1 1 3 3 3 4 2 1 3 4 5 5 3 3 2 3 1 5 3 4 3 1 2 1 2 1 1 1 3 3 4 1 3 4 8 3 3 3 3 1 3 4 7 3 3 5 7
4 4 6 7 9 9 9 9 8 9 10 10 3 3 5 3 1 2 1 2 3 2 1 3 3 2 2 0 1 3 1 1 0 1 4 3 0 2 2 3 1 4 2 3 1 2 2 2 1 1 1 1 3 2 2 3 3 1 4 3 4 4 5 4 4 0 3 2 1 1 1 1 2 8 8 10 3 3 3 1 3 3 4 5 4 6 6
2 3 5 6 7 8 8 8 10 10 8 8 4 3 3 2 3 1 1 2 1 1 4 2 2 3 3 1 3 3 1 1 0 1 1 2 1 0 4 4 3 4 2 2 3 3 4 2 0 1 2 1 2 0 2 2 4 5 6 2 6 6 3 4 4 2 0 0 1 2 1 1 3 5 7 9 6 1 3 4 2 2 5 5 4 6 7
3 3 5 6 7 7 7 8 10 8 5 5 2 1 4 4 3 0 3 1 1 1 2 1 2 2 2 3 2 1 1 2 3 2 1 2 1 2 2 3 3 3 2 3 1 3 1 1 3 1 0 1 1 2 1 3 3 3 4 4 2 2 2 3 3 1 3 1 2 1 1 2 4 5 7 10 4 3 4 2 7 5 6 7 4 7 7
2 3 5 5 6 7 7 7 8 7 5 5 4 0 4 4 3 2 2 1 1 1 4 7 1 2 1 2 1 1 1 2 4 2 0 3 0 2 1 0 1 1 5 1 3 1 1 1 1 0 0 4 2 1 1 2 2 4 2 5 3 2 0 1 2 2 2 1 1 4 3 3 3 6 5 5 2 1 3 5 3 4 7 8 5 7 8
1 2 4 4 5 5 6 7 9 9 8 7 3 1 5 5 3 0 2 1 1 1 4 2 3 3 3 2 1 2 1 3 1 3 2 2 3 3 3 1 4 3 4 3 1 1 2 0 1 1 2 0 0 1 1 2 2 2 2 1 1 1 1 2 2 1 1 1 1 3 2 2 3 3 5 2 2 2 5 4 6 4 6 6 7 4 9
2 1 2 2 3 4 6 6 7 8 8 8 5 2 4 3 5 1 3 4 2 1 3 3 2 2 2 1 2 2 3 3 2 3 3 2 2 2 1 2 2 0 0 1 2 2 1 1 2 1 1 0 3 2 1 2 5 4 1 0 1 1 2 1 1 2 1 0 1 0 4 4 1 1 2 4 4 3 4 2 5 6 4 5 5 5 6
2 1 2 2 1 3 4 6 7 7 8 9 5 1 0 4 4 3 2 3 2 3 3 4 2 3 5 4 3 4 5 6 4 5 5 1 1 2 3 3 1 1 0 1 3 2 3 0 1 2 1 3 2 1 1 3 1 3 3 3 3 2 1 3 1 2 1 2 3 6 4 4 4 4 4 4 6 5 5 4 6 6 6 4 4 6 7
3 1 2 3 3 3 4 5 6 7 8 10 6 1 1 4 6 6 3 0 1 1 2 3 2 2 3 4 3 3 5 6 5 3 4 4 1 2 4 2 1 1 1 2 3 4 3 2 2 3 1 2 1 3 1 2 2 2 1 1 3 2 2 1 1 4 3 4 8 5 4 4 6 3 5 5 5 6 5 7 6 5 7 5 5 6 6
4 3 3 3 2 2 4 5 5 5 7 8 4 1 2 3 5 5 3 1 1 1 4 2 1 2 2 4 3 4 6 2 3 3 2 7 5 0 2 0 1 2 1 2 4 5 3 2 3 1 1 3 1 1 1 2 1 1 2 5 1 1 1 1 1 2 3 3 1 1 3 4 5 5 5 4 5 6 4 4 4 5 6 6 6 5 6
5 4 3 4 4 3 4 5 4 5 5 7 7 3 3 3 3 2 1 1 2 1 1 4 2 8 5 3 3 3 2 3 4 5 4 3 6 7 5 4 3 5 5 5 2 6 2 2 1 1 1 5 4 3 2 1 5 0 4 4 2 4 1 0 3 1 1 5 6 5 4 5 7 5 4 5 7 6 5 4 4 5 5 4 6 5 5
4 4 4 4 3 4 4 3 4 4 4 7 5 2 1 3 5 5 1 1 1 1 1 1 2 3 3 3 3 2 6 7 6 5 3 5 6 7 8 2 1 1 3 2 5 4 3 1 1 1 2 4 2 2 1 3 5 2 3 7 6 2 3 2 2 2 6 5 7 4 4 6 5 6 5 6 6 5 5 5 4 5 5 6 7 4 5
5 4 4 4 3 2 2 2 3 4 6 6 3 2 1 4 5 2 1 1 2 1 2 2 4 5 5 4 3 1 6 8 6 6 4 3 4 2 4 5 4 2 2 2 2 3 1 1 2 2 4 4 2 2 2 3 0 2 3 6 0 2 4 2 2 2 3 3 6 3 3 5 8 8 8 7 5 3 3 4 5 5 6 7 6 8 5
4 4 4 4 3 2 2 2 3 5 7 6 2 3 2 2 4 3 3 1 1 1 2 1 2 6 3 4 4 5 9 10 9 7 6 6 5 3 4 6 4 3 2 3 0 0 1 2 4 4 1 2 1 4 0 1 0 1 3 5 3 3 5 3 3 2 5 7 9 4 5 5 9 11 10 7 6 2 3 5 5 6 6 6 5 6 7
5 5 5 5 3 1 3 2 4 4 7 5 2 3 3 4 4 4 3 1 2 0 0 3 3 3 1 2 4 0 8 10 8 8 8 7 7 5 5 6 6 4 3 3 3 3 3 4 2 3 2 4 2 3 1 1 1 5 6 5 3 5 5 5 7 5 6 7 8 5 3 5 8 7 6 7 5 2 5 6 6 5 6 6 5 4 3
6 5 5 4 3 2 2 4 4 4 4 2 1 4 3 3 3 5 6 1 1 1 1 1 0 2 3 3 3 2 6 9 9 8 7 6 6 8 8 6 4 4 4 4 4 3 4 2 2 2 1 3 2 1 1 2 2 7 5 6 7 4 4 7 5 5 5 5 5 4 4 8 8 6 8 7 4 2 4 6 6 6 7 5 4 5 4
7 6 5 4 3 2 3 5 5 6 3 1 3 3 2 0 2 2 7 6 1 2 1 1 4 4 4 3 3 6 3 7 8 8 8 9 7 6 5 6 2 6 3 1 1 5 3 2 2 2 1 3 3 2 4 2 3 4 6 6 6 5 4 6 6 8 8 8 6 4 4 6 4 1 2 4 6 6 4 4 6 5 4 4 5 4 6
7 6 5 3 3 1 3 4 5 5 3 1 2 3 4 2 1 5 7 5 2 2 1 1 2 1 2 3 2 3 3 3 3 2 1 3 3 3 3 5 4 6 5 5 3 2 3 4 3 3 3 4 4 1 2 2 4 7 6 4 6 6 5 7 6 7 6 6 3 4 2 4 1 1 3 4 4 4 2 3 4 3 3 3 4 4 4
7 6 4 3 1 0 2 3 4 3 1 4 7 9 12 14 13 10 4 3 2 1 1 2 1 1 0 3 3 2 3 2 0 2 3 1 3 1 2 1 2 1 1 4 1 3 4 4 2 2 5 3 2 2 2 6 8 11 11 8 8 8 7 7 8 5 4 3 1 1 2 2 3 4 4 3 2 2 2 2 3 3 5 6 6 6 6
7 6 5 3 2 0 2 3 4 7 5 2 3 3 2 5 4 4 1 0 1 0 1 1 0 0 4 5 2 4 1 4 3 2 2 2 2 3 3 1 0 2 2 5 4 1 1 1 3 3 2 2 1 1 3 7 9 11 9 9 9 8 5 6 6 6 5 3 3 4 3 4 3 2 3 4 5 4 1 2 2 4 5 5 5 5 5
6 5 5 4 2 1 1 2 1 1 1 0 2 4 1 6 6 3 2 1 2 0 1 1 1 0 2 2 0 5 1 3 2 3 4 4 1 4 1 1 1 2 4 2 1 2 3 4 5 4 5 1 2 3 5 7 10 9 7 8 8 7 4 4 5 6 5 2 1 0 1 2 3 4 4 5 5 5 4 4 4 2 4 6 6 6 5
6 7 5 4 3 2 1 2 1 1 1 1 2 1 6 4 5 1 0 1 1 1 1 2 1 3 3 2 1 3 0 1 2 1 2 1 1 0 2 3 1 6 1 2 4 1 2 3 3 3 1 3 6 6 9 9 11 11 8 9 9 6 6 8 5 4 2 1 1 1 2 1 2 5 6 6 6 6 5 4 6 5 5 6 7 7 6
8 7 5 4 2 1 0 2 1 2 3 1 2 5 5 3 2 1 2 3 1 1 2 0 0 5 4 4 1 4 2 3 0 1 1 1 4 1 2 1 4 3 1 1 0 3 6 1 2 2 2 5 7 8 11 11 9 10 10 8 7 7 6 4 4 3 2 2 3 1 1 3 5 5 5 7 8 6 5 6 6 6 7 8 7 6 7
7 6 3 2 1 2 0 1 2 4 7 3 3 2 4 4 1 2 2 0 1 1 1 0 4 4 2 1 3 3 2 4 1 3 2 1 1 1 0 2 3 1 4 2 4 5 2 2 3 5 6 6 7 7 8 7 8 8 8 7 6 6 5 3 5 5 2 1 3 3 4 5 5 5 5 6 6 6 7 6 6 6 6 6 7 7 6
6 3 1 2 1 1 3 3 3 9 6 1 1 1 0 0 1 0 1 1 0 1 2 4 6 4 4 3 6 4 2 1 1 1 2 2 2 3 1 2 2 1 2 0 4 1 1 2 1 1 5 3 1 5 5 7 7 6 5 5 4 4 5 4 4 4 3 2 2 2 1 2 4 6 5 5 6 5 5 5 5 6 6 6 6 5 5
2 3 1 0 2 2 1 1 8 6 1 1 1 2 0 0 2 2 0 1 1 2 1 4 4 5 8 10 7 7 1 2 2 3 2 2 0 2 1 1 1 2 2 1 5 2 1 2 2 1 6 3 4 5 4 4 1 3 3 4 4 4 4 3 3 2 2 1 1 1 2 3 4 4 4 4 4 5 6 5 6 6 5 6 6 5 5
1 1 1 1 2 1 1 1 2 1 1 1 1 1 1 1 2 1 1 0 1 3 2 4 1 2 3 3 4 7 5 1 1 2 3 2 2 2 2 1 1 1 2 1 4 1 0 0 1 2 6 3 3 6 4 1 3 1 1 2 1 1 3 2 1 1 2 3 2 2 2 3 3 4 4 4 4 4 4 5 5 6 6 6 6 7 7
4 1 1 2 1 3 2 2 1 1 1 0 2 2 2 2 0 0 1 3 4 1 3 3 3 3 4 9 7 3 3 1 1 1 1 0 1 1 1 0 1 1 2 4 1 1 1 1 2 4 4 4 5 3 2 3 1 1 0 1 4 4 3 2 2 1 1 1 1 3 4 4 5 4 4 4 4 5 5 5 6 6 6 6 6 7 7
6 6 0 2 2 0 1 1 1 1 1 1 1 2 1 1 2 3 2 1 1 1 2 1 3 1 0 3 0 1 3 0 1 1 1 1 1 1 2 0 1 0 3 1 1 0 1 3 3 7 5 5 4 4 3 2 2 1 1 2 3 2 3 2 1 1 2 2 3 3 3 3 4 4 4 4 4 5 5 4 6 6 6 6 6 6 6
3 1 1 1 1 0 2 1 0 2 1 1 2 3 1 0 3 0 0 3 1 2 2 4 4 5 4 1 4 1 1 1 2 1 0 0 1 0 1 1 3 4 1 0 0 2 4 3 7 6 6 3 4 3 4 3 1 2 1 1 0 1 2 3 3 3 3 3 3 3 2 3 3 4 4 4 5 5 6 6 7 7 7 5 5 6 7
1 1 1 1 0 1 2 1 1 2 4 3 2 2 3 4 4 3 5 4 2 4 1 2 1 2 3 3 2 0 1 2 1 2 1 1 1 0 1 2 1 1 1 2 2 2 1 4 3 2 3 5 6 4 4 3 3 3 1 1 2 2 2 2 0 0 0 1 1 1 2 3 3 4 4 4 5 4 5 7 8 8 7 5 6 7 7
1 2 2 3 1 2 2 2 1 2 2 2 3 5 4 6 4 4 6 2 2 4 2 4 3 2 3 2 4 3 0 2 2 1 1 1 2 2 2 0 1 0 1 1 3 4 6 6 4 6 5 5 5 3 1 2 1 1 4 2 1 1 1 1 0 0 0 1 2 1 3 3 3 3 4 4 4 5 6 7 8 8 7 6 8 8 7
0 0 1 1 1 2 1 3 3 4 4 3 6 6 7 7 7 5 2 1 3 5 4 3 6 7 5 2 1 1 1 1 2 2 2 1 2 2 1 2 2 2 2 3 4 4 4 5 5 5 4 4 4 2 1 2 2 4 3 3 2 1 1 0 0 0 1 2 2 2 3 3 3 3 3 4 5 5 5 6 8 8 6 6 6 6 5
2 1 2 1 4 2 7 4 1 3 3 3 3 4 5 1 1 5 6 3 3 1 3 1 0 0 1 2 2 3 2 0 1 2 2 2 1 0 0 1 2 2 2 3 5 3 4 5 5 6 5 3 3 3 2 3 3 2 3 3 3 2 2 2 1 2 2 2 3 3 3 3 2 2 2 2 3 4 4 4 5 4 4 5 5 4 4
1 0 2 2 2 2 2 3 3 5 6 6 4 3 2 2 6 8 7 1 2 1 2 3 1 1 1 0 2 2 1 0 2 2 1 0 2 3 2 3 2 3 3 3 4 3 4 6 7 6 5 3 3 3 3 3 3 3 3 3 3 3 3 3 3 3 3 3 3 3 2 2 1 1 2 2 4 4 4 4 3 3 4 4 4 4 4
1 1 1 1 1 3 1 2 3 6 6 6 4 6 5 6 6 8 2 2 1 0 1 3 3 4 0 1 1 1 1 1 2 0 2 4 3 2 1 4 3 3 2 2 2 3 5 6 5 4 6 5 3 3 2 2 3 3 4 4 4 3 3 3 3 3 3 3 3 2 1 2 2 2 3 4 4 4 4 4 4 4 5 5 5 5 6
0 1 3 3 5 5 3 3 5 3 5 7 5 6 3 5 6 7 1 4 2 2 3 1 0 2 2 2 1 0 2 0 1 4 4 3 2 2 4 6 3 4 4 4 4 4 5 5 5 6 6 3 2 1 2 3 2 4 4 4 3 1 1 1 2 3 4 4 3 4 3 2 2 2 3 3 4 5 5 5 5 6 7 7 7 6 7
2 4 4 4 4 5 3 2 1 3 5 5 3 4 1 2 2 4 0 4 3 3 3 1 2 2 1 3 3 2 1 1 2 0 2 3 3 3 3 4 4 4 4 3 4 5 5 5 5 5 3 1 1 3 3 3 2 3 3 3 2 1 2 3 3 4 3 4 4 2 3 4 4 3 3 4 5 5 6 7 8 7 7 7 6 6 6
Wind_Direction
343 342 343 344 346 346 345 346 349 354 351 11 356 335 21 46 204 256 310 321 78 67 56 321 40 70 193 235 38 56 48 98 102 70 9 54 19 41 41 24 50 19 33 16 45 16 303 43 5 359 2 51 42 20 8 353 358 80 355 27 312 47 60 351 282 287 278 297 112 57 83 92 38 30 111 144 165 171 188 188 153 215 232 249 306 237 251
346 343 342 344 346 347 346 346 348 353 9 6 299 47 88 216 274 321 303 42 86 78 92 56 349 1 347 61 41 10 106 71 15 64 351 94 359 101 26 4 59 73 33 53 21 4 22 326 39 357 12 358 37 35 10 356 16 42 255 97 279 33 304 73 316 340 324 40 21 357 323 45 48 312 282 196 141 99 26 78 63 230 212 181 152 256 234
349 344 343 343 346 347 348 346 344 350 348 353 33 51 258 284 275 251 300 354 52 89 170 139 119 42 74 53 36 3 18 304 105 99 61 60 102 64 17 96 49 34 22 45 14 33 61 289 349 29 337 316 333 26 15 353 346 70 197 211 59 82 245 62 3 354 343 334 347 335 332 340 310 271 294 182 137 123 120 262 244 233 242 177 209 272 256
350 346 344 344 344 347 349 346 343 343 345 338 120 218 47 24 78 302 339 9 24 39 43 106 128 92 46 41 331 83 55 327 66 93 65 115 52 94 158 30 75 40 41 29 5 352 1 52 297 11 330 330 341 354 342 346 278 341 70 92 84 160 16 110 155 167 254 251 254 252 179 336 326 294 290 279 204 197 121 86 159 216 217 214 230 243 296
349 347 345 344 345 346 349 347 342 342 341 344 149 31 117 186 69 16 346 339 38 28 11 41 64 83 152 92 265 25 33 3 354 32 98 2 93 67 53 30 54 339 63 33 340 343 334 350 44 344 318 310 292 321 325 323 347 5 200 61 79 59 18 263 180 195 211 228 237 261 240 257 270 283 291 294 146 159 151 182 221 103 348 267 223 77 13
348 348 345 345 346 347 349 348 343 342 343 360 149 57 13 59 279 92 181 120 290 38 329 39 37 2 79 96 87 55 39 28 44 328 77 152 50 97 353 37 65 95 91 87 36 328 334 2 351 312 308 318 323 323 340 309 308 111 27 52 123 141 194 269 137 247 223 230 250 267 269 237 254 282 305 322 338 155 191 239 224 159 216 263 311 327 313
349 350 344 345 346 348 350 349 347 344 342 8 119 81 302 132 263 269 24 80 253 161 205 77 80 39 86 64 58 35 67 53 250 247 328 29 13 56 84 3 352 47 48 83 23 338 10 317 257 303 315 323 316 322 336 315 344 93 43 21 99 71 224 239 222 274 276 274 270 278 272 281 312 358 10 11 13 338 279 266 239 194 234 263 298 302 297
349 350 348 343 343 349 351 351 352 347 341 340 69 55 78 355 63 315 353 65 284 280 29 71 62 56 7 84 308 122 127 52 332 358 83 26 17 42 88 353 6 53 58 65 57 277 206 239 302 307 322 311 223 259 213 255 324 13 143 140 17 64 294 309 344 348 302 285 279 288 285 301 343 40 10 10 355 340 343 358 332 290 297 324 299 297 304
346 350 350 347 345 351 351 354 357 351 346 59 41 53 47 277 210 179 31 15 299 358 40 39 101 65 342 77 294 67 343 151 121 73 68 119 133 106 145 161 55 21 58 27 322 263 253 298 282 269 238 272 247 200 283 178 295 345 11 52 316 56 273 42 43 5 300 277 296 302 315 355 116 36 25 22 9 3 12 35 280 342 315 343 342 351 337
338 347 351 347 349 352 353 358 0 360 347 89 48 20 291 331 292 25 124 109 296 5 310 45 62 29 239 139 310 102 14 37 68 56 337 105 138 160 160 192 105 342 35 351 275 255 258 282 275 261 247 239 259 216 248 242 233 208 89 66 88 190 344 10 14 347 271 284 334 311 336 21 27 13 5 26 293 262 84 217 319 342 276 6 15 18 353
329 340 348 345 349 352 354 359 4 11 13 49 33 346 329 32 336 353 39 87 337 8 67 13 104 213 124 38 62 30 60 55 66 100 273 47 351 153 113 111 99 249 16 290 238 218 263 277 284 280 274 265 261 272 267 265 222 185 132 77 275 188 133 194 156 169 270 314 320 333 55 41 24 267 270 256 343 329 356 354 19 31 22 59 63 335 306
317 334 347 342 349 352 353 357 3 15 32 5 268 268 245 349 325 99 74 93 242 336 91 122 164 113 99 175 113 82 36 32 151 158 171 254 258 295 91 95 91 7 244 234 313 340 319 287 269 268 250 266 267 277 303 9 57 87 141 146 154 206 54 176 138 104 275 320 351 34 47 30 224 274 267 276 293 318 353 46 28 359 13 33 9 323 324
312 334 339 344 349 351 350 353 359 4 13 3 4 246 287 270 176 81 126 112 142 8 32 38 41 106 124 85 69 357 241 253 353 182 138 149 320 303 227 167 159 225 227 14 14 21 13 322 318 306 313 348 14 47 61 79 76 70 90 125 117 184 111 201 19 198 325 34 1 29 306 224 156 268 275 280 303 297 9 344 351 339 338 325 317 305 297
313 330 342 346 351 349 349 351 353 359 0 5 355 253 282 338 50 42 74 94 327 246 151 65 19 66 81 127 142 308 15 17 339 113 197 233 168 234 283 148 196 198 162 96 59 46 11 18 6 4 347 4 8 21 81 78 96 121 88 18 90 140 119 90 327 39 68 249 327 236 183 99 352 339 338 30 305 324 338 313 270 279 301 314 298 301 299
306 334 345 351 351 347 349 349 348 357 359 358 304 289 303 312 34 131 201 91 156 289 116 135 241 194 170 193 116 47 44 329 46 314 263 310 115 229 203 215 227 90 69 68 21 48 114 82 34 4 327 32 5 311 355 39 17 32 74 78 69 127 45 212 87 311 122 31 334 343 21 41 295 261 282 272 220 227 206 173 280 293 280 278 294 292 297
301 341 343 350 347 345 346 349 347 355 5 357 25 345 284 280 305 99 117 138 118 54 287 204 184 137 134 224 144 127 163 114 248 332 360 342 308 342 357 334 341 55 39 77 94 89 43 68 302 69 346 329 288 341 333 334 346 64 64 50 47 25 71 98 99 340 30 32 67 325 272 243 253 291 297 300 303 256 169 105 306 257 248 296 288 291 289
275 321 341 343 341 340 343 345 341 349 359 22 360 337 296 359 18 53 74 32 89 191 260 227 127 105 79 5 16 32 113 130 148 72 325 321 294 332 315 352 350 53 72 76 16 59 23 14 331 179 262 286 4 219 266 10 344 329 330 21 37 34 359 25 32 14 331 137 90 270 199 193 282 286 294 296 316 49 86 17 285 269 304 305 309 291 292
241 307 338 339 339 339 337 341 337 333 350 6 35 313 286 303 314 49 61 106 107 287 288 315 92 71 136 185 162 237 80 35 42 56 122 245 4 0 319 8 356 325 76 84 53 66 58 107 31 16 266 268 300 62 6 299 329 302 313 306 337 356 340 53 18 323 318 80 259 341 315 284 266 266 288 299 314 74 61 295 262 287 309 305 296 285 279
245 320 334 336 341 334 336 345 356 1 4 0 337 56 269 248 313 65 127 60 83 157 288 322 29 144 217 113 136 174 168 161 158 111 293 10 326 247 218 175 101 326 355 127 65 99 118 284 331 54 75 314 351 124 276 37 324 295 316 8 1 346 66 306 69 26 317 242 248 238 234 228 230 270 279 276 37 25 286 238 229 275 295 292 285 281 286
228 358 345 350 347 346 16 21 13 8 13 4 43 208 259 300 283 171 97 131 83 234 288 318 14 35 331 121 117 72 349 20 107 130 158 173 279 24 35 12 321 75 360 56 48 259 93 336 270 35 28 301 288 240 48 269 244 247 286 235 114 227 49 294 307 276 36 28 338 6 15 264 198 287 341 26 81 235 221 275 294 256 271 281 290 267 278
158 20 1 352 343 8 27 29 20 16 10 0 12 35 348 309 338 2 115 128 122 74 298 291 353 325 358 83 159 164 143 178 173 117 205 167 208 93 132 207 230 90 91 119 111 349 73 340 343 14 236 160 277 37 298 309 323 288 117 23 159 207 64 306 290 170 264 335 37 116 215 239 243 84 321 271 202 215 244 213 276 283 267 277 276 277 268
187 290 301 278 280 340 2 26 31 23 9 358 358 82 1 285 332 344 347 107 109 174 209 246 233 262 262 265 211 162 158 160 199 150 135 128 329 147 182 133 104 105 178 98 43 24 6 353 25 43 357 299 18 131 288 14 311 272 333 57 9 229 158 176 249 248 143 230 222 251 244 241 253 184 225 240 260 251 244 235 244 271 288 236 268 279 286
164 223 257 267 248 297 345 10 16 18 3 4 8 80 259 325 322 321 320 32 319 335 301 326 323 289 282 266 234 184 167 157 126 98 123 116 40 3 108 93 27 172 97 102 161 153 188 131 209 176 358 217 246 311 317 202 242 337 336 260 227 231 190 133 73 267 273 259 237 274 315 298 294 257 228 252 270 268 246 248 256 253 246 257 262 282 287
183 212 246 265 258 301 329 345 356 6 358 358 19 17 313 295 282 331 356 65 109 328 330 325 47 306 219 258 209 105 104 108 155 173 152 127 121 35 344 218 170 46 81 201 171 139 191 127 205 136 192 250 80 255 263 325 266 215 341 327 318 258 152 90 239 271 40 294 326 25 265 286 294 291 294 269 233 246 238 247 237 261 281 290 284 272 281
196 221 248 259 266 279 309 324 342 358 352 357 353 262 237 302 276 344 32 76 325 93 174 307 281 225 250 236 120 91 191 154 125 117 99 86 127 143 167 200 167 148 191 200 96 66 58 119 311 85 203 263 134 261 233 154 298 252 333 263 359 326 150 104 233 218 201 243 270 277 267 257 268 252 259 294 300 292 273 247 260 267 274 267 268 286 295
196 220 238 264 263 272 286 319 339 344 347 356 7 12 341 282 305 322 176 74 148 115 95 236 273 320 10 72 147 203 149 136 145 126 153 152 153 149 156 142 52 54 114 119 106 118 141 80 135 150 126 286 135 163 223 207 236 236 215 249 214 216 119 249 178 225 272 294 292 277 307 323 308 299 278 271 268 274 299 296 297 290 301 303 301 283 256
197 217 247 250 260 259 278 327 351 348 343 345 352 309 258 288 278 319 28 273 70 0 54 253 275 300 17 319 260 208 144 147 146 153 160 154 164 110 112 130 140 83 92 45 28 125 73 100 118 230 178 227 200 225 199 304 171 290 269 267 163 110 236 224 57 351 317 245 273 301 347 298 299 288 278 282 283 242 254 296 312 309 309 300 299 298 304
189 212 229 241 239 257 313 328 334 338 338 340 324 299 241 246 280 320 321 104 101 181 188 254 318 280 299 278 258 176 158 162 160 164 175 186 175 157 151 155 142 116 120 112 308 344 126 137 246 227 185 273 59 298 273 237 61 320 234 254 195 185 218 155 192 193 262 259 257 229 205 252 252 259 280 289 276 243 326 307 296 292 290 284 288 296 318
192 207 226 235 226 297 328 326 332 337 342 351 327 347 328 254 249 254 266 32 83 46 43 260 306 354 156 248 306 233 172 166 168 175 182 183 184 181 188 174 170 161 108 98 123 139 155 222 183 156 197 209 122 256 33 272 212 241 234 233 210 223 190 190 213 201 249 257 265 255 176 230 264 269 274 273 260 237 296 295 289 282 277 290 289 277 259
195 210 219 225 250 281 308 319 328 327 342 4 58 59 39 322 349 15 329 359 118 115 69 21 46 256 307 323 288 218 165 176 177 181 179 181 191 194 204 178 201 171 156 168 162 214 218 175 252 266 229 120 149 194 158 203 203 250 241 235 240 252 231 233 213 178 237 232 232 231 223 249 253 263 269 259 269 263 291 290 293 302 301 288 291 310 279
195 204 212 216 251 262 304 314 324 326 353 41 82 77 92 218 286 338 11 347 357 107 143 116 237 286 335 259 227 267 212 166 185 190 198 198 202 192 186 172 193 151 183 186 176 228 141 236 168 271 202 174 128 151 197 164 256 296 257 213 233 248 252 251 238 228 240 263 268 274 276 264 272 298 309 317 326 333 323 309 315 309 292 319 334 338 318
197 198 197 210 238 279 306 298 312 323 327 56 92 142 173 173 265 302 329 322 359 61 71 28 334 350 255 311 271 218 189 186 152 160 226 158 233 210 209 179 213 181 157 169 205 107 228 214 154 219 174 209 127 206 148 184 226 248 257 228 239 242 252 265 259 247 228 226 242 335 353 318 306 179 262 284 318 320 331 289 280 286 299 324 318 333 324
186 182 195 204 205 247 270 278 279 280 272 277 259 255 259 260 258 270 294 326 47 172 125 87 185 235 7 249 303 283 153 71 51 101 241 226 221 146 232 267 167 203 232 111 210 204 208 157 146 200 251 123 135 201 180 217 228 243 253 261 258 256 250 243 237 243 251 263 152 179 251 249 280 279 259 271 272 273 288 302 287 328 359 352 335 328 332
174 183 187 184 152 264 292 272 271 290 283 305 349 314 277 215 201 205 171 131 112 329 77 120 7 316 254 315 41 282 134 146 221 152 229 289 195 125 224 84 214 142 262 173 249 105 324 89 180 213 57 246 155 97 257 246 236 247 253 253 253 256 243 248 249 256 252 240 216 199 203 223 235 267 355 350 320 303 296 257 341 349 319 317 306 294 286
180 182 182 156 163 272 188 296 325 258 157 261 255 256 152 121 134 137 93 99 74 341 35 309 124 16 334 351 72 268 142 106 233 210 181 262 186 179 233 112 318 158 278 89 48 186 179 223 157 117 230 151 130 228 242 257 261 248 244 256 258 259 269 260 265 231 233 224 223 280 336 67 32 340 293 281 278 275 301 292 273 265 298 293 283 280 281
168 164 167 173 173 158 60 345 303 305 13 270 250 164 124 105 98 101 118 119 124 151 104 247 108 200 153 193 246 272 356 203 219 161 204 166 8 108 110 124 204 245 203 151 209 148 198 223 117 255 191 156 224 198 232 228 244 256 234 232 241 229 213 194 208 235 241 238 202 60 8 7 326 285 283 278 276 282 274 277 290 286 271 275 275 272 277
161 167 164 130 119 76 68 213 233 183 212 212 169 123 98 82 38 50 26 22 354 90 167 192 352 245 174 221 268 280 110 224 301 148 315 141 208 276 84 77 222 263 47 309 325 192 252 120 156 208 195 198 245 228 229 232 234 244 254 236 224 228 216 220 201 156 96 7 2 341 328 319 310 309 316 301 289 287 308 297 277 279 280 278 279 278 265
159 152 138 158 125 68 31 290 217 199 128 131 181 69 347 31 78 343 4 30 269 103 301 159 231 248 271 127 249 255 133 249 81 158 297 238 101 270 118 138 224 149 259 231 246 186 107 109 201 203 253 244 249 251 249 245 241 235 239 244 227 204 193 183 146 111 107 9 352 332 335 331 320 300 297 294 293 291 280 272 277 273 268 268 265 265 280
153 160 224 232 125 192 183 238 167 125 109 29 58 62 318 353 67 335 242 218 38 270 267 165 238 190 200 222 264 296 168 200 315 22 170 266 120 293 355 171 287 60 297 35 291 66 304 318 306 288 263 288 302 260 252 245 256 253 228 212 171 173 154 160 151 136 157 184 206 230 206 237 270 283 289 287 286 279 270 278 285 289 289 288 283 281 278
155 148 178 129 222 238 276 190 127 103 64 76 320 102 187 292 101 256 288 70 304 266 166 239 215 189 191 207 211 275 280 138 230 258 193 298 343 152 257 84 265 97 248 137 246 16 147 260 279 333 277 274 251 267 299 287 219 212 178 173 151 160 158 152 180 184 150 174 195 233 228 219 212 221 248 271 285 297 306 307 299 297 298 289 290 292 283
204 161 149 209 242 162 198 202 346 52 77 32 8 348 88 284 231 196 103 213 207 239 188 189 255 238 244 179 177 221 285 85 190 144 117 164 244 83 62 215 236 99 239 210 276 64 71 339 288 218 242 237 243 280 297 214 181 242 177 141 143 120 111 119 136 115 88 42 352 307 280 280 309 311 314 312 308 292 283 286 291 291 293 300 300 290 283
159 164 227 256 97 85 50 17 75 56 354 165 120 248 207 222 209 4 150 158 238 219 267 173 256 195 224 183 196 171 271 196 124 93 102 320 292 124 214 251 14 140 250 236 178 47 90 246 264 277 257 256 263 259 178 137 200 139 28 92 123 137 133 104 62 357 136 190 245 272 302 330 334 324 314 311 302 294 294 297 302 305 299 289 288 294 292
342 330 222 137 64 5 97 74 281 114 135 207 84 294 252 167 206 169 247 240 275 158 255 155 228 200 311 101 75 167 193 202 117 319 76 208 292 59 92 338 83 299 240 298 63 22 209 231 253 250 251 271 274 245 238 185 201 162 157 169 166 182 156 152 155 320 314 341 335 329 318 323 310 297 298 305 311 319 310 304 298 293 291 292 299 296 290
294 281 37 9 82 257 83 202 238 58 294 210 161 200 162 350 297 104 102 262 226 270 225 158 244 143 240 285 142 243 8 356 46 79 23 320 85 158 78 212 212 241 71 46 149 195 221 224 222 246 268 279 271 240 222 221 178 110 138 215 240 62 59 53 36 28 349 340 0 341 338 325 306 313 322 323 321 309 300 297 291 292 294 304 302 296 290
92 53 72 44 77 238 87 266 135 139 211 220 152 210 184 189 232 186 200 241 140 220 269 156 145 135 206 263 52 1 120 177 318 101 237 92 20 291 122 256 246 26 150 247 269 285 297 259 282 288 295 317 302 246 237 225 179 166 174 24 27 52 83 88 37 220 270 291 276 284 323 308 319 313 313 311 307 301 305 305 304 312 305 298 296 299 298
168 154 118 120 173 242 176 215 152 231 264 167 206 198 175 228 180 226 248 208 250 290 296 230 231 178 234 253 150 207 70 101 77 224 164 79 107 263 238 214 94 70 305 208 223 223 223 242 272 285 287 273 269 283 270 248 226 129 100 133 210 191 196 183 200 208 237 257 287 296 296 296 298 303 304 301 305 315 316 313 317 312 304 313 312 312 314
70 304 109 115 134 247 139 188 218 197 186 208 213 187 193 215 219 218 232 199 248 246 265 235 200 191 184 212 106 345 55 100 135 248 77 74 188 256 358 104 238 188 186 237 225 241 261 256 245 250 260 263 290 303 149 141 154 158 186 195 200 223 220 214 223 238 270 256 281 279 278 275 276 277 306 341 332 323 321 324 323 323 326 317 312 316 325
171 228 108 167 216 186 201 228 182 279 264 204 237 224 237 223 318 284 256 228 246 256 253 76 138 128 297 300 87 178 193 116 81 277 157 187 32 58 305 298 229 223 197 190 228 205 228 254 261 272 271 275 254 219 224 230 228 212 198 196 205 216 225 219 228 251 246 249 246 244 249 264 295 333 350 316 308 318 325 322 324 328 326 325 328 330 333
196 153 181 207 208 177 222 231 196 252 269 290 275 280 288 232 235 251 268 252 142 183 200 132 196 98 252 301 105 92 246 318 122 232 80 116 156 206 176 234 191 240 245 184 212 205 227 259 265 277 298 307 262 212 220 223 209 200 194 196 209 222 217 219 227 239 246 240 240 244 273 302 358 31 351 347 339 310 293 295 308 317 318 320 315 318 313
135 284 259 232 341 303 233 91 143 235 271 270 294 284 277 276 265 267 211 181 223 112 1 25 37 91 265 90 11 13 238 216 178 252 139 212 201 221 206 248 208 188 254 239 198 230 244 258 279 302 290 290 251 229 233 262 236 224 226 225 228 219 221 220 242 255 255 265 272 289 337 53 40 14 346 317 288 274 296 307 311 315 317 309 307 311 311
251 206 241 181 162 217 153 199 191 217 241 242 236 251 240 246 237 262 240 156 115 54 47 138 214 96 56 30 88 18 254 179 137 208 171 203 191 178 204 231 232 195 217 221 205 225 240 257 257 262 278 266 235 257 262 274 253 239 237 246 255 258 282 279 270 276 295 323 5 46 37 3 306 287 295 305 319 319 314 318 323 325 321 314 309 310 310
208 217 233 237 205 233 214 225 250 203 215 222 223 251 198 251 276 267 149 92 85 137 223 193 104 99 101 186 211 195 319 0 256 220 223 249 173 198 223 198 222 227 218 252 284 279 269 265 258 253 234 208 237 239 245 251 272 299 313 306 301 290 297 309 325 348 17 30 31 16 316 290 298 328 349 347 335 341 341 328 321 323 315 308 307 315 312